Cloud_Cover
3 0 5 14 3 4 5 5 5 5 5 61 75 11 66 30 68 65 34 91 98 100 100 84 82 100 100 100 100 100 100 95 98 100 100 100 100 100 100 100 100 100 100
0 17 48 5 5 5 5 5 5 5 5 5 5 64 95 99 38 45 100 100 100 100 100 100 100 100 100 100 100 100 100 100 100 100 100 100 100 100 100 100 100 100 100
99 43 5 5 5 5 5 63 5 5 7 66 58 99 66 100 11 98 98 100 100 100 100 100 100 100 100 100 100 100 100 97 99 97 100 100 100 100 100 100 100 100 100
7 34 5 5 5 5 5 5 5 15 18 68 72 57 45 38 68 100 100 100 100 100 100 100 100 100 100 100 100 100 100 100 47 100 100 100 100 100 100 100 100 100 100
5 5 5 5 5 5 5 5 5 5 5 14 16 11 11 6 86 100 100 100 100 100 100 100 100 100 100 100 100 94 98 100 100 100 100 100 100 100 100 100 100 100 100
5 5 5 5 5 5 4 5 5 5 5 5 6 72 74 26 100 100 47 100 100 100 100 100 100 100 100 100 93 93 88 100 97 100 100 100 100 100 100 100 100 100 100
5 5 5 5 5 34 5 5 6 58 5 14 9 5 19 100 100 75 100 88 88 100 100 100 100 90 100 100 100 99 100 100 97 100 100 100 100 100 100 100 100 100 100
5 5 5 5 6 5 29 35 76 53 65 88 5 16 20 7 17 49 25 86 100 100 100 100 100 100 93 97 99 100 100 100 100 100 100 100 100 100 100 100 100 100 100
5 5 4 5 5 5 92 94 100 68 78 90 56 36 61 7 100 100 100 100 100 100 100 100 100 100 72 100 96 100 100 100 100 100 100 100 100 100 100 100 100 100 83
8 5 6 5 6 73 97 83 90 50 5 7 77 97 89 97 100 100 100 100 100 100 100 100 100 100 100 77 100 100 100 100 100 100 100 100 100 100 100 100 100 100 100
28 69 25 27 8 24 5 26 25 5 25 60 69 100 100 100 100 100 100 100 100 100 100 100 99 100 100 100 100 100 100 100 100 100 100 100 100 100 100 96 66 75 97
94 7 97 100 40 5 5 1 3 8 54 52 100 100 100 100 100 100 100 100 100 100 100 100 91 100 100 100 100 100 100 100 100 100 100 100 100 100 100 100 100 100 100
44 83 8 66 90 5 5 5 24 14 99 100 100 100 100 100 100 100 100 100 76 100 100 99 100 100 100 100 100 100 100 100 100 100 100 100 100 100 100 100 100 100 100
84 100 98 69 5 55 5 5 73 100 100 100 100 100 100 100 100 100 100 88 100 100 100 100 100 100 100 100 100 100 100 100 100 100 100 100 100 100 100 100 100 100 100
88 100 100 87 41 18 53 90 100 100 100 100 100 100 100 100 100 100 100 100 98 100 100 100 100 100 100 100 100 100 100 100 100 100 100 100 100 100 100 100 100 100 100
32 73 89 72 44 93 100 100 100 100 100 100 100 100 100 100 100 100 100 100 100 100 100 100 100 100 100 100 100 100 100 100 100 100 100 100 100 100 100 100 100 100 100
88 97 66 92 100 100 100 100 100 100 100 100 100 100 100 100 100 100 100 100 100 100 100 100 100 100 100 100 100 100 100 100 100 100 100 100 100 100 100 100 100 100 100
70 98 100 100 99 100 100 100 100 100 100 100 100 100 100 100 100 100 100 100 100 100 100 100 100 100 100 96 100 100 100 100 100 100 100 100 100 100 100 100 99 100 100
100 98 100 98 100 100 100 100 100 100 100 100 100 100 100 100 100 100 100 100 100 100 100 100 100 100 100 100 100 100 100 100 100 100 100 100 100 100 100 100 100 100 100
100 100 100 100 100 100 100 100 100 100 100 100 100 100 100 100 100 100 100 100 100 100 100 100 100 100 100 100 100 100 100 100 100 100 100 97 94 100 84 81 94 82 63
99 100 100 100 100 100 100 100 100 100 100 100 100 100 100 100 100 100 100 100 100 100 100 100 100 100 100 100 100 100 100 100 100 96 80 98 100 96 16 43 54 5 6
99 100 100 100 100 100 100 100 100 100 100 100 98 100 100 100 100 100 100 100 100 100 100 100 100 100 100 100 100 100 100 100 100 93 92 89 58 5 9 53 49 40 18
100 100 100 100 100 100 100 100 100 100 100 100 100 100 100 100 100 100 100 100 100 100 100 88 97 74 71 99 100 89 100 67 29 91 99 58 31 69 7 9 54 99 84
100 100 100 87 98 100 100 100 100 100 100 100 100 100 100 100 100 100 100 100 100 100 100 100 100 100 100 78 100 100 100 100 16 41 41 18 63 96 100 100 97 5 12
100 100 100 100 98 100 100 100 100 100 100 100 100 100 100 100 100 100 100 100 100 99 99 98 99 100 100 66 84 80 57 5 5 26 5 5 5 27 37 5 5 5 5
100 100 100 99 90 100 62 92 97 100 100 100 100 100 100 100 100 90 100 100 61 58 100 100 100 100 100 100 100 91 56 32 32 62 76 63 57 44 6 20 22 5 5